Clayton Lake, ME

11:58 AM EST on February 23, 2017 (GMT -0500)
Clayton Lake

Weather History for K40B - May, 2013

Change the Weather History Date:

Thursday, May 23, 2013

  Actual Average Record
Temperature  
Mean Temperature 56 °F -  
Max Temperature 65 °F 60 °F 79 °F (2016)
Min Temperature 48 °F 37 °F 28 °F (2015)
Degree Days  
Heating Degree Days 9    
Growing Degree Days 6 (Base 50)    
Moisture  
Dew Point 55 °F    
Average Humidity 96    
Maximum Humidity 100    
Minimum Humidity 82    
Precipitation  
Precipitation 1.01 in - - ()
Sea Level Pressure  
Sea Level Pressure 29.76 in    
Wind  
Wind Speed 7 mph (SSE)    
Max Wind Speed 12 mph    
Max Gust Speed 20 mph    
Averages and records for this station are not official NWS values.
T = Trace of Precipitation, MM = Missing Value Source: NWS Daily Summary

Daily Weather History Graph

Daily Weather History Graph

Search for Another Location

Airport or City:

Trip Planner

Search our weather history database for the weather conditions in past years. The results will help you decide how hot, cold, wet, or windy it might be!

Date:

Astronomy

May. 23, 2013 Rise Set
Actual Time 4:55 AM EDT 8:15 PM EDT
Civil Twilight 4:18 AM EDT 8:52 PM EDT
Nautical Twilight 3:30 AM EDT 9:40 PM EDT
Astronomical Twilight 2:28 AM EDT 10:42 PM EDT
Moon 6:39 PM EDT 3:44 AM EDT
Length of Visible Light 16h 33m
Length of Day
15h 19m
Waxing Gibbous, 97% of the Moon is Illuminated
May 23
Waxing Gibbous
May 25
Full
May 31
Last Quarter
Jun 8
New
Jun 16
First Quarter

Hourly Weather History & Observations

Time (EDT) Temp. Dew Point Humidity Pressure Visibility Wind Dir Wind Speed Gust Speed Precip Events Conditions
12:26 AM 50.7 °F 49.8 °F 97% 29.84 in - SSE 9.2 mph 19.6 mph N/A   Unknown
1:25 AM 50.2 °F 49.5 °F 97% 29.84 in - SSE 6.9 mph 15.0 mph N/A   Unknown
2:25 AM 49.3 °F 49.1 °F 99% 29.81 in - Variable 4.6 mph - N/A   Unknown
3:25 AM 48.9 °F 48.9 °F 100% 29.78 in - Variable 4.6 mph 16.1 mph N/A   Unknown
4:25 AM 49.5 °F 49.1 °F 99% 29.79 in - SSE 8.1 mph 13.8 mph 0.09 in   Unknown
5:25 AM 49.8 °F 49.5 °F 99% 29.78 in - SSE 9.2 mph 16.1 mph 0.01 in   Unknown
6:25 AM 50.2 °F 49.8 °F 99% 29.77 in - Variable 5.8 mph 12.7 mph N/A   Unknown
7:25 AM 50.4 °F 50.2 °F 99% 29.78 in - Variable 5.8 mph - N/A   Unknown
8:25 AM 51.8 °F 51.4 °F 99% 29.78 in - Variable 5.8 mph 19.6 mph N/A   Unknown
9:25 AM 54.1 °F 52.9 °F 95% 29.78 in - Variable 5.8 mph 13.8 mph N/A   Unknown
10:25 AM 56.8 °F 53.1 °F 87% 29.78 in - Variable 4.6 mph 18.4 mph N/A   Unknown
11:25 AM 58.6 °F 53.4 °F 83% 29.78 in - South 9.2 mph 16.1 mph N/A   Unknown
12:25 PM 59.7 °F 54.1 °F 82% 29.76 in - Variable 5.8 mph - N/A   Unknown
1:25 PM 57.2 °F 56.8 °F 99% 29.77 in - Variable 4.6 mph - 0.00 in   Unknown
2:25 PM 58.5 °F 58.6 °F 100% 29.75 in - South 9.2 mph - 0.55 in   Unknown
3:25 PM 60.4 °F 60.1 °F 99% 29.74 in - South 9.2 mph - 0.01 in   Unknown
4:25 PM 63.9 °F 63.0 °F 97% 29.72 in - Variable 5.8 mph - 0.07 in   Unknown
5:25 PM 64.8 °F 63.9 °F 97% 29.72 in - South 8.1 mph - N/A   Unknown
6:25 PM 63.5 °F 62.2 °F 96% 29.71 in - Variable 4.6 mph - N/A   Unknown
7:25 PM 62.1 °F 61.2 °F 97% 29.72 in - SSE 10.4 mph 18.4 mph N/A   Unknown
8:25 PM 60.4 °F 60.1 °F 99% 29.73 in - South 8.1 mph - 0.15 in   Unknown
9:25 PM 59.9 °F 60.1 °F 100% 29.72 in - South 11.5 mph 19.6 mph 0.11 in   Unknown
10:25 PM - - N/A% 29.74 in - Calm Calm - 0.02 in   Unknown
11:25 PM 58.8 °F 59.4 °F 100% 29.73 in - Calm Calm - 0.00 in   Unknown